EW7899 Weather Reports


time (UTC)temp
C
wind
direction
speed
KPH
gust
KPH
rain 1hr
cm
rain 24hr
cm
rain mn
cm
humidity
%
barometer
mb
20260507020044 6 95 0.0 0.0 0.00 1.73 1.68 95 1006.5
20260507014551 6 95 0.0 0.0 0.00 1.73 1.68 95 1006.6
20260507013048 6 95 0.0 0.0 0.00 1.73 1.68 95 1006.4
20260507011543 6 96 0.0 0.0 0.00 1.73 1.68 95 1006.4
20260507010042 6 97 0.0 1.6 0.00 1.73 1.68 95 1006.5
20260507004545 6 95 0.0 0.0 0.00 1.73 1.68 95 1006.3
20260507003041 6 95 0.0 0.0 0.00 1.73 1.68 94 1006.3
20260507001548 6 94 0.0 0.0 0.00 1.73 1.68 94 1006.0
20260507000040 6 94 0.0 0.0 0.00 1.73 1.68 94 1005.9
20260506234540 7 93 0.0 0.0 0.00 1.73 1.68 94 1005.6
20260506233040 7 83 0.0 0.0 0.00 1.73 1.68 94 1005.6
20260506231539 7 82 0.0 0.0 0.00 1.73 1.68 93 1005.2
20260506230038 7 83 0.0 0.0 0.00 1.73 1.68 94 1005.2
20260506224538 7 82 0.0 0.0 0.00 1.73 1.68 94 1005.2
20260506223038 7 82 0.0 0.0 0.03 1.73 1.68 94 1005.1
20260506221538 7 82 0.0 0.0 0.03 1.73 1.68 94 1005.4
20260506220040 7 82 0.0 0.0 0.03 1.73 1.68 94 1005.2
20260506214548 7 82 0.0 0.0 0.03 1.73 1.68 94 1005.4
20260506213036 7 83 0.0 0.0 0.00 1.70 1.65 93 1005.3
20260506211535 7 82 0.0 0.0 0.00 1.70 1.65 93 1005.3
20260506210035 7 81 0.0 0.0 0.00 1.70 1.65 93 1005.2
20260506204538 7 82 0.0 0.0 0.00 1.70 1.65 93 1005.1
20260506203034 7 83 0.0 0.0 0.03 1.70 1.65 93 1005.2
20260506201534 7 84 0.0 1.6 0.03 1.70 1.65 92 1005.2
20260506200032 7 81 0.0 0.0 0.05 1.78 1.65 93 1005.1
20260506194533 7 80 0.0 0.0 0.05 1.78 1.65 93 1005.2
20260506193034 7 80 0.0 0.0 0.03 1.75 1.63 93 1005.2
20260506191532 7 88 0.0 1.6 0.03 1.75 1.63 92 1005.0
20260506190030 7 89 0.0 1.6 0.00 1.75 1.60 92 1004.9
20260506184530 7 94 0.0 0.0 0.00 1.75 1.60 91 1005.0
20260506183028 7 121 0.0 0.0 0.00 1.75 1.60 91 1005.1
20260506181527 7 124 0.0 0.0 0.03 1.75 1.60 92 1005.2
20260506180026 7 96 0.0 0.0 0.08 1.75 1.60 92 1005.4
20260506174526 6 123 0.0 6.4 0.13 1.75 1.60 94 1005.4
20260506173026 6 53 0.0 0.0 0.20 1.75 1.60 94 1005.5
20260506171525 6 316 0.0 0.0 0.23 1.73 1.57 94 1005.8
20260506170025 6 315 0.0 0.0 0.23 1.68 1.52 94 1005.7
20260506164527 6 359 0.0 0.0 0.25 1.63 1.45 93 1005.9
20260506163023 6 317 0.0 0.0 0.23 1.55 1.40 93 1006.0
20260506161523 6 316 0.0 0.0 0.23 1.50 1.35 94 1005.8
20260506160023 6 314 0.0 0.0 0.23 1.42 1.30 94 1006.1
20260506154522 5 313 0.0 0.0 0.23 1.37 1.22 94 1006.2
20260506153021 5 314 0.0 0.0 0.23 1.32 1.17 94 1006.3
20260506151523 5 313 0.0 0.0 0.25 1.27 1.12 94 1006.4
20260506150021 5 314 0.0 0.0 0.20 1.19 1.04 94 1006.6
20260506144522 5 359 0.0 0.0 0.23 1.14 0.99 94 1006.1
20260506143025 6 359 0.0 0.0 0.23 1.09 0.94 94 1006.4
20260506141526 5 359 0.0 0.0 0.18 1.02 0.86 94 1006.0
20260506140021 5 359 0.0 0.0 0.18 0.99 0.84 94 1006.4
20260506134518 5 313 0.0 0.0 0.13 0.91 0.76 94 1006.2
20260506133019 5 313 0.0 0.0 0.13 0.86 0.71 94 1006.1
20260506131523 5 359 0.0 0.0 0.13 0.84 0.69 94 1006.1
20260506130018 5 313 0.0 0.0 0.18 0.81 0.66 94 1006.2
20260506124515 5 313 0.0 0.0 0.18 0.79 0.64 94 1006.3
20260506123015 6 359 0.0 0.0 0.20 0.71 0.58 95 1006.8
20260506121512 6 359 0.0 0.0 0.25 0.69 0.53 95 1006.6
20260506120022 5 359 0.0 0.0 0.23 0.64 0.48 94 1006.9
20260506114511 6 313 0.0 0.0 0.20 0.58 0.43 95 1007.0
20260506113010 6 359 0.0 0.0 0.18 0.53 0.38 94 1007.4
20260506111508 5 313 0.0 0.0 0.13 0.43 0.28 94 1006.8
20260506110007 5 314 0.0 0.0 0.15 0.41 0.25 94 1006.7
20260506104507 5 313 0.0 0.0 0.15 0.38 0.23 93 1006.6
20260506103005 6 313 0.0 0.0 0.10 0.33 0.18 93 1006.5
20260506101503 6 314 0.0 0.0 0.08 0.30 0.15 92 1006.3
20260506100002 6 314 0.0 0.0 0.03 0.25 0.10 92 1006.1
20260506094501 6 359 0.0 0.0 0.00 0.23 0.08 91 1006.3
20260506093101 6 220 0.0 0.0 0.00 0.23 0.08 91 1006.6
20260506091559 6 220 0.0 0.0 0.00 0.23 0.08 92 1006.2
20260506090100 6 228 0.0 0.0 0.00 0.23 0.08 93 1006.6
20260506084559 6 190 0.0 0.0 0.00 0.23 0.08 93 1006.8
20260506083059 6 191 0.0 0.0 0.00 0.23 0.08 93 1006.3
20260506081554 6 190 0.0 0.0 0.00 0.23 0.08 92 1006.3
20260506080106 6 193 0.0 0.0 0.00 0.23 0.08 92 1006.3
20260506073103 7 193 0.0 0.0 0.00 0.23 0.08 91 1006.5
20260506071549 7 359 0.0 1.6 0.03 0.23 0.08 89 1006.2
20260506061540 8 251 0.0 0.0 0.00 0.20 0.05 93 1006.3
20260506044538 9 261 0.0 0.0 0.05 0.18 0.03 92 1006.2
20260506043027 9 149 1.6 8.0 0.05 0.18 0.03 92 1005.8
20260506041537 10 235 0.0 3.2 0.03 0.15 0.00 91 1005.4
20260506040024 10 316 3.2 14.5 0.03 0.13 0.13 89 1005.4
20260506034529 10 287 0.0 9.7 0.03 0.13 0.13 89 1005.2
20260506033021 10 174 1.6 9.7 0.03 0.13 0.13 87 1004.9
20260506031521 11 220 1.6 9.7 0.03 0.13 0.13 86 1005.1
20260506030020 11 162 0.0 9.7 0.00 0.10 0.10 85 1005.1
20260506024520 11 324 0.0 0.0 0.00 0.10 0.10 84 1005.4
20260506023020 12 295 0.0 9.7 0.00 0.10 0.10 82 1005.1
20260506021517 12 105 3.2 17.7 0.00 0.10 0.10 80 1004.9